| time (UTC) | temp F | wind direction | speed MPH | gust MPH | rain 1hr in | rain 24hr in | rain mn in | humidity % | barometer mb |
| 20260903163036 | 84 | 215 | 2.0 | 7.0 | 0.00 | 0.00 | 0.00 | 67 | 1005.5 |
| 20260903161512 | 82 | 229 | 2.0 | 9.0 | 0.00 | 0.00 | 0.00 | 68 | 1005.4 |
| 20260903160025 | 82 | 240 | 2.0 | 5.0 | 0.00 | 0.00 | 0.00 | 71 | 1005.4 |
| 20260903154530 | 81 | 167 | 1.0 | 7.0 | 0.00 | 0.00 | 0.00 | 75 | 1005.6 |
| 20260903153030 | 80 | 153 | 1.0 | 5.0 | 0.00 | 0.00 | 0.00 | 79 | 1005.5 |
| 20260903151515 | 78 | 248 | 0.0 | 6.0 | 0.00 | 0.00 | 0.00 | 82 | 1005.8 |
| 20260903150036 | 76 | 238 | 0.0 | 8.0 | 0.00 | 0.00 | 0.00 | 85 | 1006.0 |
| 20260903144531 | 74 | 242 | 0.0 | 10.0 | 0.00 | 0.00 | 0.00 | 86 | 1006.1 |
| 20260903143035 | 73 | 249 | 0.0 | 7.0 | 0.00 | 0.00 | 0.00 | 87 | 1006.2 |
| 20260903141520 | 72 | 257 | 0.0 | 0.0 | 0.00 | 0.00 | 0.00 | 89 | 1006.1 |
| 20260903140027 | 72 | 257 | 0.0 | 0.0 | 0.00 | 0.00 | 0.00 | 89 | 1006.0 |
| 20260903134528 | 71 | 257 | 0.0 | 0.0 | 0.00 | 0.00 | 0.00 | 89 | 1005.9 |
| 20260903133032 | 71 | 257 | 0.0 | 6.0 | 0.00 | 0.00 | 0.00 | 89 | 1006.4 |
| 20260903131535 | 71 | 103 | 0.0 | 0.0 | 0.00 | 0.00 | 0.00 | 90 | 1005.5 |
| 20260903130027 | 70 | 103 | 0.0 | 0.0 | 0.00 | 0.00 | 0.00 | 91 | 1005.7 |
| 20260903124531 | 70 | 103 | 0.0 | 0.0 | 0.00 | 0.00 | 0.00 | 90 | 1005.6 |
| 20260903123033 | 70 | 103 | 0.0 | 0.0 | 0.00 | 0.00 | 0.00 | 90 | 1005.6 |
| 20260903121532 | 70 | 101 | 0.0 | 3.0 | 0.00 | 0.00 | 0.00 | 90 | 1005.7 |
| 20260903120015 | 70 | 99 | 0.0 | 3.0 | 0.00 | 0.00 | 0.00 | 90 | 1005.9 |
| 20260903114511 | 70 | 88 | 0.0 | 6.0 | 0.00 | 0.00 | 0.00 | 90 | 1005.9 |
| 20260903113016 | 69 | 99 | 1.0 | 6.0 | 0.00 | 0.00 | 0.00 | 90 | 1005.8 |
| 20260903111516 | 69 | 101 | 1.0 | 3.0 | 0.00 | 0.00 | 0.00 | 90 | 1006.1 |
| 20260903110016 | 69 | 119 | 0.0 | 4.0 | 0.00 | 0.00 | 0.00 | 90 | 1006.0 |
| 20260903104510 | 69 | 126 | 1.0 | 4.0 | 0.00 | 0.00 | 0.00 | 90 | 1006.2 |
| 20260903103020 | 69 | 105 | 0.0 | 0.0 | 0.00 | 0.00 | 0.00 | 90 | 1006.5 |
| 20260903101519 | 69 | 104 | 0.0 | 0.0 | 0.00 | 0.00 | 0.00 | 90 | 1006.7 |
| 20260903100028 | 69 | 106 | 0.0 | 4.0 | 0.00 | 0.00 | 0.00 | 89 | 1006.5 |
| 20260903094512 | 69 | 106 | 0.0 | 3.0 | 0.00 | 0.00 | 0.00 | 90 | 1006.4 |
| 20260903093026 | 69 | 116 | 0.0 | 0.0 | 0.00 | 0.00 | 0.00 | 90 | 1006.4 |
| 20260903091524 | 69 | 100 | 0.0 | 3.0 | 0.00 | 0.00 | 0.00 | 89 | 1006.4 |
| 20260903090029 | 69 | 79 | 0.0 | 3.0 | 0.00 | 0.00 | 0.00 | 89 | 1006.5 |
| 20260903084515 | 68 | 78 | 1.0 | 4.0 | 0.00 | 0.00 | 0.00 | 89 | 1006.7 |
| 20260903083024 | 67 | 69 | 1.0 | 3.0 | 0.00 | 0.00 | 0.00 | 88 | 1006.7 |
| 20260903081506 | 67 | 59 | 0.0 | 6.0 | 0.00 | 0.00 | 0.00 | 87 | 1007.1 |
| 20260903080006 | 68 | 32 | 1.0 | 6.0 | 0.00 | 0.00 | 0.00 | 85 | 1007.4 |
| 20260903074518 | 70 | 22 | 2.0 | 5.0 | 0.00 | 0.00 | 0.00 | 84 | 1007.7 |
| 20260903073024 | 70 | 96 | 0.0 | 5.0 | 0.00 | 0.00 | 0.00 | 86 | 1007.5 |
| 20260903071507 | 70 | 88 | 0.0 | 0.0 | 0.00 | 0.00 | 0.00 | 85 | 1007.5 |
| 20260903070011 | 71 | 88 | 0.0 | 4.0 | 0.00 | 0.00 | 0.00 | 84 | 1007.7 |
| 20260903064519 | 71 | 86 | 0.0 | 4.0 | 0.00 | 0.00 | 0.00 | 84 | 1007.7 |
| 20260903063027 | 70 | 114 | 0.0 | 6.0 | 0.00 | 0.00 | 0.00 | 84 | 1007.7 |
| 20260903061508 | 70 | 67 | 0.0 | 8.0 | 0.00 | 0.00 | 0.00 | 82 | 1007.9 |
| 20260903060015 | 70 | 73 | 2.0 | 8.0 | 0.00 | 0.00 | 0.00 | 81 | 1008.2 |
| 20260903054535 | 70 | 76 | 3.0 | 7.0 | 0.00 | 0.00 | 0.00 | 79 | 1008.3 |
| 20260903053028 | 70 | 82 | 3.0 | 8.0 | 0.00 | 0.00 | 0.00 | 77 | 1008.5 |
| 20260903051509 | 70 | 65 | 2.0 | 8.0 | 0.00 | 0.00 | 0.00 | 76 | 1008.6 |
| 20260903050014 | 70 | 93 | 2.0 | 8.0 | 0.00 | 0.00 | 0.00 | 75 | 1008.6 |
| 20260903044523 | 70 | 69 | 1.0 | 9.0 | 0.00 | 0.00 | 0.00 | 74 | 1008.7 |
| 20260903043028 | 70 | 103 | 2.0 | 8.0 | 0.00 | 0.00 | 0.00 | 73 | 1008.8 |
| 20260903041531 | 71 | 66 | 3.0 | 10.0 | 0.00 | 0.00 | 0.00 | 72 | 1008.9 |
| 20260903040018 | 71 | 83 | 2.0 | 9.0 | 0.00 | 0.00 | 0.00 | 72 | 1009.0 |
| 20260903034527 | 71 | 69 | 2.0 | 7.0 | 0.00 | 0.00 | 0.00 | 72 | 1009.2 |
| 20260903033028 | 71 | 88 | 3.0 | 8.0 | 0.00 | 0.00 | 0.00 | 71 | 1009.2 |
| 20260903031529 | 71 | 84 | 2.0 | 8.0 | 0.00 | 0.00 | 0.00 | 71 | 1009.2 |
| 20260903030020 | 72 | 76 | 3.0 | 9.0 | 0.00 | 0.00 | 0.00 | 71 | 1009.3 |
| 20260903024523 | 72 | 59 | 2.0 | 8.0 | 0.00 | 0.00 | 0.00 | 71 | 1009.2 |
| 20260903023038 | 72 | 81 | 2.0 | 10.0 | 0.00 | 0.00 | 0.00 | 70 | 1009.2 |
| 20260903021533 | 73 | 144 | 2.0 | 10.0 | 0.00 | 0.00 | 0.00 | 69 | 1009.2 |
| 20260903020020 | 74 | 89 | 2.0 | 8.0 | 0.00 | 0.00 | 0.00 | 68 | 1009.1 |
| 20260903014504 | 74 | 88 | 1.0 | 9.0 | 0.00 | 0.00 | 0.00 | 67 | 1009.2 |
| 20260903013007 | 75 | 72 | 3.0 | 9.0 | 0.00 | 0.00 | 0.00 | 66 | 1009.0 |
| 20260903011521 | 75 | 76 | 3.0 | 10.0 | 0.00 | 0.00 | 0.00 | 65 | 1009.1 |
| 20260903010019 | 76 | 30 | 2.0 | 10.0 | 0.00 | 0.00 | 0.00 | 64 | 1009.1 |
| 20260903004538 | 77 | 74 | 3.0 | 10.0 | 0.00 | 0.00 | 0.00 | 62 | 1009.1 |
| 20260903003009 | 78 | 77 | 6.0 | 14.0 | 0.00 | 0.00 | 0.00 | 61 | 1009.0 |
| 20260903001521 | 79 | 61 | 5.0 | 14.0 | 0.00 | 0.00 | 0.00 | 60 | 1009.2 |
| 20260903000039 | 79 | 71 | 9.0 | 14.0 | 0.00 | 0.00 | 0.00 | 59 | 1008.9 |
| 20260902234534 | 80 | 59 | 7.0 | 15.0 | 0.00 | 0.00 | 0.00 | 58 | 1009.1 |
| 20260902233011 | 81 | 77 | 7.0 | 13.0 | 0.00 | 0.00 | 0.00 | 56 | 1009.1 |
| 20260902231518 | 82 | 91 | 5.0 | 16.0 | 0.00 | 0.00 | 0.00 | 55 | 1009.1 |
| 20260902230026 | 82 | 98 | 8.0 | 16.0 | 0.00 | 0.00 | 0.00 | 52 | 1009.1 |
| 20260902224530 | 83 | 73 | 6.0 | 15.0 | 0.00 | 0.00 | 0.00 | 51 | 1009.1 |
| 20260902223011 | 83 | 125 | 9.0 | 17.0 | 0.00 | 0.00 | 0.00 | 50 | 1009.3 |
| 20260902221517 | 83 | 88 | 7.0 | 18.0 | 0.00 | 0.00 | 0.00 | 51 | 1009.3 |
| 20260902220025 | 84 | 92 | 4.0 | 15.0 | 0.00 | 0.00 | 0.00 | 51 | 1009.3 |
| 20260902214604 | 84 | 88 | 4.0 | 12.0 | 0.00 | 0.00 | 0.00 | 52 | 1009.5 |
| 20260902213016 | 83 | 127 | 9.0 | 17.0 | 0.00 | 0.00 | 0.00 | 51 | 1009.5 |
| 20260902211518 | 83 | 58 | 4.0 | 18.0 | 0.00 | 0.00 | 0.00 | 52 | 1009.8 |
| 20260902210027 | 83 | 89 | 5.0 | 15.0 | 0.00 | 0.00 | 0.00 | 50 | 1010.0 |
| 20260902204532 | 84 | 138 | 6.0 | 10.0 | 0.00 | 0.00 | 0.00 | 51 | 1010.1 |
| 20260902203015 | 85 | 110 | 3.0 | 11.0 | 0.00 | 0.00 | 0.00 | 50 | 1010.2 |
| 20260902201532 | 83 | 78 | 7.0 | 15.0 | 0.00 | 0.00 | 0.00 | 51 | 1010.4 |
| 20260902200025 | 83 | 114 | 5.0 | 13.0 | 0.00 | 0.00 | 0.00 | 52 | 1010.8 |
| 20260902194539 | 83 | 53 | 2.0 | 12.0 | 0.00 | 0.00 | 0.00 | 52 | 1011.0 |
| 20260902193034 | 82 | 101 | 5.0 | 13.0 | 0.00 | 0.00 | 0.00 | 55 | 1010.8 |
| 20260902191526 | 81 | 90 | 7.0 | 14.0 | 0.00 | 0.00 | 0.00 | 55 | 1011.0 |
| 20260902190029 | 81 | 64 | 7.0 | 15.0 | 0.00 | 0.00 | 0.00 | 55 | 1011.1 |
| 20260902184534 | 81 | 76 | 7.0 | 13.0 | 0.00 | 0.00 | 0.00 | 57 | 1011.3 |
| 20260902183033 | 81 | 75 | 5.0 | 14.0 | 0.00 | 0.00 | 0.00 | 56 | 1011.4 |
| 20260902181524 | 81 | 72 | 3.0 | 12.0 | 0.00 | 0.00 | 0.00 | 55 | 1011.6 |
| 20260902180033 | 79 | 69 | 6.0 | 12.0 | 0.00 | 0.00 | 0.00 | 58 | 1011.8 |
| 20260902174543 | 81 | 69 | 3.0 | 11.0 | 0.00 | 0.00 | 0.00 | 56 | 1011.9 |
| 20260902173035 | 79 | 93 | 7.0 | 13.0 | 0.00 | 0.00 | 0.00 | 55 | 1011.9 |
| 20260902171528 | 78 | 79 | 4.0 | 13.0 | 0.00 | 0.00 | 0.00 | 56 | 1012.0 |
| 20260902170035 | 78 | 115 | 2.0 | 9.0 | 0.00 | 0.00 | 0.00 | 59 | 1012.1 |
| 20260902164522 | 77 | 82 | 1.0 | 11.0 | 0.00 | 0.00 | 0.00 | 61 | 1012.0 |